Location: Nitra
(0.0000°N, 18.0833°E)
Time: 09:37:15
(UTC+02:00)

A-11 Canister half - Pass Details

Date: 31 March 2023
Orbit: 1513 x 1686 km, 47.2° (Epoch: 02 June)

Event Time Altitude Azimuth Distance (km) Brightness Sun altitude
Exits shadow 03:42:44 10° 360° (N) 3,928 11.1 -47.2°
Maximum altitude 03:50:01 22° 47° (NE) 3,049 10.8 -45.4°
Drops below altitude 10° 03:57:13 10° 94° (E) 3,884 11.7 -43.6°
Sets 04:01:17 0° 108° (ESE) 4,846 12.3 -42.6°
